Tiempo atmosférico en la estación meteorológica de El Paso, Santa Cruz de Tenerife (844 m.)



Fecha
DESCASC
Temp. máxima en grados centígrados (hora)
DESCASC
Temp. mínima en grados centígrados (hora)
DESCASC
Temp. media en grados centígrados
DESCASC
Racha de viento máxima en m/sg (hora)
DESCASC
Velocidad máxima media en intervalos de 10 minutos(hora)
DESCASC
Precipitaciones diarias en mm
DESCASC
Precipitaciones de 00:00 a 06:00 en mm
DESCASC
Precipitaciones de 06:00 a 12:00 en mm
DESCASC
Precipitaciones de 12:00 a 18:00 en mm
DESCASC
Precipitaciones de 18:00 a 24:00 en mm
DESCASC
24-01-2021 19.8 (15:30) 10.7 (23:50) 15.2 6.67 (13:30) 3.33 (13:30) 0 0 0 0 0
23-01-2021 22 (13:50) 9.7 (05:10) 15.8 8.33 (12:40) 4.17 (16:20) 0 0 0 0 0
22-01-2021 16.7 (14:30) 9.9 (04:10) 13.3 6.11 (14:30) 4.17 (12:50) 0 0 0 0 0
21-01-2021 18.8 (14:50) 6.2 (00:00) 12.5 5.83 (15:00) 3.89 (14:50) 0 0 0 0 0
20-01-2021 15.3 (15:00) 3.4 (00:00) 9.4 6.39 (16:30) 3.33 (12:40) 0 0 0 0 0
19-01-2021 14.8 (17:00) 3.3 (00:00) 9.1 5.28 (13:50) 3.33 (15:20) 0 0 0 0 0
18-01-2021 16.3 (11:10) 2.9 (00:00) 9.6 5.28 (15:50) 3.06 (11:20) 0 0 0 0 0
17-01-2021 14.9 (12:10) 5 (00:00) 9.9 13.33 (00:10) 7.78 (00:20) 0 0 0 0 0
16-01-2021 13.9 (13:30) 9 (00:00) 11.4 16.67 (10:00) 9.17 (11:20) 0 0 0 0 0
15-01-2021 12 (15:10) 9.1 (00:00) 10.6 19.17 (00:20) 10.28 (00:10) 0.6 0.6 0 0 0
14-01-2021 13.4 (14:30) 9.5 (03:40) 11.4 18.33 (23:59) 10.56 (23:59) 0 0 0 0 0
13-01-2021 12.4 (15:10) 8.3 (00:00) 10.3 14.72 (22:50) 8.06 (22:50) 0.4 0.4 0 0 0
12-01-2021 11.8 (13:30) 7.4 (00:00) 9.6 12.78 (05:00) 6.67 (05:00) 4.8 2.8 0.6 0.8 0.6
11-01-2021 12.4 (13:10) 5.4 (00:00) 8.9 11.11 (17:00) 6.11 (18:00) 2.2 0 0 0 2.2
10-01-2021 13.1 (11:10) 4 (07:40) 8.6 8.61 (14:10) 5 (14:20) 0 0 0 0 0
09-01-2021 11.1 (14:00) 5.4 (00:00) 8.3 10.83 (15:00) 5.28 (15:00) 0.6 0.2 0.4 0 0
08-01-2021 13.1 (11:40) 6.1 (00:00) 9.6 10.83 (01:30) 5 (06:20) 0.8 0.6 0 0 0.2
07-01-2021 14.5 (05:00) 11.7 (00:00) 13.1 21.11 (15:30) 13.06 (12:00) 67.6 26.4 8.4 14 18.8
06-01-2021 15.2 (08:40) 13.4 (00:00) 14.3 18.61 (09:40) 11.67 (09:40) 36.4 9.4 4.4 14 8.6
05-01-2021 14.5 (12:10) 10.8 (00:00) 12.7 9.44 (23:30) 5.28 (17:10) 21 0.4 1 7.4 12.2
04-01-2021 14.3 (11:30) 11.2 (00:00) 12.8 16.39 (16:00) 10.28 (15:40) 17 0 1.6 13.2 2.2
03-01-2021 14.4 (15:10) 9.2 (00:00) 11.8 7.78 (23:30) 4.44 (23:30) 1 0 0.4 0.2 0.4
02-01-2021 12.9 (12:50) 7 (00:00) 9.9 8.06 (17:30) 4.17 (10:30) 0 0 0 0 0
01-01-2021 12.7 (13:30) 9.3 (00:00) 11 13.61 (01:10) 8.06 (01:10) 0.6 0.4 0 0.2 0
31-12-2020 14.7 (11:20) 8.1 (00:00) 11.4 10.28 (23:59) 5.56 (23:59) 3.8 0 0 3.4 0.4
30-12-2020 14.9 (11:50) 9.1 (00:00) 12 6.67 (01:40) 3.33 (12:00) 10.6 0 0 10.2 0.4
29-12-2020 16.2 (12:50) 8.7 (00:00) 12.5 7.78 (16:20) 4.44 (16:20) 0 0 0 0 0
28-12-2020 15.8 (14:50) 9 (00:00) 12.4 8.06 (21:20) 4.72 (21:20) 0 0 0 0 0
27-12-2020 16.3 (12:00) 10.1 (00:00) 13.2 5.83 (03:00) 3.06 (04:30) 2.4 0 0.2 0 2.2
26-12-2020 16.1 (12:00) 11.3 (00:00) 13.7 9.44 (04:10) 5.56 (01:40) 7.8 3.2 1.8 2.8 0

Gráficas

Temp. máximas Temp. mínimas Temp. medias Precipitaciones Rachas de viento máximas Velocidades máximas media en intervalos de 10 minutos

Datos horarios

Fecha y hora oficial Temperatura (ºC) Velocidad del viento (km/h) Dirección del viento Racha (km/h) Dirección de racha Precipitación (mm) Presión (hPa) Tendencia (hPa) Humedad (%)
2021-01-24 23:00:00 11.1 6 Este 9 Este 0 -- -- 68
2021-01-24 22:00:00 12.1 5 Este 10 Este 0 -- -- 69
2021-01-24 21:00:00 12.3 6 Este 10 Este 0 -- -- 66
2021-01-24 20:00:00 13.6 5 Este 10 Este 0 -- -- 69
2021-01-24 19:00:00 16.1 3 Este 6 Este 0 -- -- 65
2021-01-24 18:00:00 18.7 4 Oeste 13 Oeste 0 -- -- 54
2021-01-24 17:00:00 19.1 8 Oeste 17 Oeste 0 -- -- 60
2021-01-24 16:00:00 19.7 10 Oeste 20 Oeste 0 -- -- 57
2021-01-24 15:00:00 19.6 9 Oeste 16 Oeste 0 -- -- 56
2021-01-24 14:00:00 19.3 8 Oeste 24 Oeste 0 -- -- 53
2021-01-24 13:00:00 19.3 6 Oeste 17 Oeste 0 -- -- 52
2021-01-24 12:00:00 19 4 Oeste 14 Oeste 0 -- -- 51
2021-01-24 11:00:00 19.5 2 Sur 5 Este 0 -- -- 51
2021-01-24 10:00:00 15.1 4 Sudeste 10 Este 0 -- -- 61
2021-01-24 09:00:00 11.3 4 Este 12 Este 0 -- -- 63
2021-01-24 08:00:00 11.7 5 Este 13 Sudeste 0 -- -- 60
2021-01-24 07:00:00 11.2 9 Este 14 Este 0 -- -- 58
2021-01-24 06:00:00 11.2 5 Sudeste 14 Este 0 -- -- 57
2021-01-24 05:00:00 11.4 4 Sudeste 10 Este 0 -- -- 60
2021-01-24 04:00:00 12 5 Este 14 Este 0 -- -- 60
2021-01-24 03:00:00 11.9 7 Oeste 16 Noroeste 0 -- -- 74
2021-01-24 02:00:00 11.8 5 Sudeste 22 Oeste 0 -- -- 80
2021-01-24 01:00:00 12.6 6 Este 14 Sudoeste 0 -- -- 87
2021-01-24 00:00:00 15.8 5 Noroeste 24 Oeste 0 -- -- 76
2021-01-23 23:00:00 14.3 3 Este 10 Este 0 -- -- 38
2021-01-23 22:00:00 16.6 9 Este 20 Sudeste 0 -- -- 35
2021-01-23 21:00:00 14.7 0 Calma 21 Oeste 0 -- -- 84
2021-01-23 20:00:00 13.9 3 Este 13 Sudoeste 0 -- -- 84
2021-01-23 19:00:00 14.8 5 Oeste 18 Oeste 0 -- -- 90
2021-01-23 18:00:00 15.8 8 Oeste 20 Oeste 0 -- -- 85
2021-01-23 17:00:00 16.8 12 Oeste 24 Oeste 0 -- -- 82
2021-01-23 16:00:00 17 3 Este 21 Oeste 0 -- -- 75
2021-01-23 15:00:00 18.9 14 Oeste 21 Oeste 0 -- -- 76
2021-01-23 14:00:00 21.5 14 Sudoeste 26 Sudeste 0 -- -- 63
2021-01-23 13:00:00 21.3 15 Sudeste 30 Sudeste 0 -- -- 32
2021-01-23 12:00:00 19.4 12 Oeste 19 Noroeste 0 -- -- 68
2021-01-23 11:00:00 20.3 9 Sudeste 21 Sudeste 0 -- -- 54
2021-01-23 10:00:00 18 6 Sudeste 17 Sudeste 0 -- -- 44
2021-01-23 09:00:00 11.3 5 Este 9 Sudeste 0 -- -- 75
2021-01-23 08:00:00 10.1 6 Este 10 Este 0 -- -- 75
2021-01-23 07:00:00 10.6 4 Sudeste 12 Este 0 -- -- 72
2021-01-23 06:00:00 10.2 5 Sudeste 13 Este 0 -- -- 75
2021-01-23 05:00:00 10.1 6 Este 12 Este 0 -- -- 74
2021-01-23 04:00:00 11.5 5 Este 14 Nordeste 0 -- -- 76
2021-01-23 03:00:00 10.7 5 Este 11 Nordeste 0 -- -- 89
2021-01-23 02:00:00 11.8 5 Este 24 Sudeste 0 -- -- 96
2021-01-23 01:00:00 12.8 11 Sudeste 21 Sudeste 0 -- -- 88
2021-01-23 00:00:00 12.5 5 Este 19 Oeste 0 -- -- 96
2021-01-22 23:00:00 12.4 5 Sur 16 Noroeste 0 -- -- 96
2021-01-22 22:00:00 12.6 3 Sudeste 15 Sudeste 0 -- -- 93
2021-01-22 21:00:00 13.5 5 Sur 12 Sur 0 -- -- 92
2021-01-22 20:00:00 14.1 0 Calma 12 Oeste 0 -- -- 94
2021-01-22 19:00:00 14.5 0 Calma 11 Oeste 0 -- -- 92
2021-01-22 18:00:00 15.3 5 Oeste 14 Oeste 0 -- -- 91
2021-01-22 17:00:00 15.8 7 Oeste 15 Oeste 0 -- -- 89
2021-01-22 16:00:00 16.1 10 Oeste 16 Oeste 0 -- -- 88
2021-01-22 15:00:00 16.1 10 Oeste 22 Oeste 0 -- -- 87
2021-01-22 14:00:00 16.4 7 Oeste 18 Oeste 0 -- -- 88
2021-01-22 13:00:00 16.2 13 Oeste 21 Oeste 0 -- -- 88
2021-01-22 12:00:00 16.3 14 Oeste 18 Oeste 0 -- -- 87
2021-01-22 11:00:00 16 7 Sudoeste 15 Oeste 0 -- -- 88
2021-01-22 10:00:00 13.3 2 Oeste 5 Oeste 0 -- -- 99
2021-01-22 09:00:00 11.5 4 Noroeste 13 Oeste 0 -- -- 97
2021-01-22 08:00:00 10.8 4 Este 17 Este 0 -- -- 95
2021-01-22 07:00:00 10.4 5 Este 19 Sudeste 0 -- -- 89
2021-01-22 06:00:00 10.8 6 Este 17 Este 0 -- -- 91
2021-01-22 05:00:00 10 4 Este 8 Oeste 0 -- -- 93
2021-01-22 04:00:00 10.1 4 Este 10 Este 0 -- -- 93
2021-01-22 03:00:00 10.9 0 Calma 8 Este 0 -- -- 96
2021-01-22 02:00:00 10.9 4 Sudoeste 10 Este 0 -- -- 94
2021-01-22 01:00:00 12.3 5 Este 11 Este 0 -- -- 96
2021-01-22 00:00:00 12.6 2 Sudeste 10 Este 0 -- -- 96
2021-01-21 23:00:00 13.1 4 Sudeste 10 Sudeste 0 -- -- 95
2021-01-21 22:00:00 13.7 3 Noroeste 9 Este 0 -- -- 95
2021-01-21 21:00:00 14.1 4 Noroeste 14 Sudoeste 0 -- -- 95
2021-01-21 20:00:00 15.2 3 Oeste 9 Oeste 0 -- -- 93
2021-01-21 19:00:00 15.7 3 Nordeste 7 Oeste 0 -- -- 91
2021-01-21 18:00:00 16.9 3 Noroeste 20 Oeste 0 -- -- 86
2021-01-21 17:00:00 18.5 14 Oeste 19 Oeste 0 -- -- 79
2021-01-21 16:00:00 18.2 8 Oeste 15 Oeste 0 -- -- 81
2021-01-21 15:00:00 18.6 13 Oeste 21 Oeste 0 -- -- 78
2021-01-21 14:00:00 18.3 8 Oeste 14 Oeste 0 -- -- 76
2021-01-21 13:00:00 17.5 8 Oeste 13 Oeste 0 -- -- 78
2021-01-21 12:00:00 16.5 8 Oeste 13 Oeste 0 -- -- 81
2021-01-21 11:00:00 15.6 7 Oeste 10 Oeste 0 -- -- 80
2021-01-21 10:00:00 13.9 2 Este 6 Sudeste 0 -- -- 86
2021-01-21 09:00:00 8.2 4 Este 8 Sudeste 0 -- -- 93
2021-01-21 08:00:00 7.5 5 Este 8 Este 0 -- -- 94
2021-01-21 07:00:00 7.4 2 Sudeste 7 Este 0 -- -- 94
2021-01-21 06:00:00 7.2 0 Calma 9 Este 0 -- -- 94
2021-01-21 05:00:00 6.5 3 Sudeste 9 Este 0 -- -- 95
2021-01-21 04:00:00 6.2 4 Este 8 Este 0 -- -- 91
2021-01-21 03:00:00 6.7 4 Sudeste 6 Este 0 -- -- 95
2021-01-21 02:00:00 7.1 0 Calma 7 Este 0 -- -- 89
2021-01-21 01:00:00 7.4 3 Este 8 Este 0 -- -- 85
2021-01-21 00:00:00 8 2 Este 10 Este 0 -- -- 81
2021-01-20 23:00:00 8.3 4 Este 10 Este 0 -- -- 82
2021-01-20 22:00:00 8.4 2 Sudeste 9 Sudoeste 0 -- -- 89
2021-01-20 21:00:00 9.2 4 Este 7 Este 0 -- -- 87
2021-01-20 20:00:00 11.4 0 Calma 6 Sudoeste 0 -- -- 91
2021-01-20 19:00:00 12.8 0 Calma 7 Oeste 0 -- -- 87
2021-01-20 18:00:00 14.5 4 Oeste 14 Sudoeste 0 -- -- 81
2021-01-20 17:00:00 15.1 5 Oeste 23 Oeste 0 -- -- 80
2021-01-20 16:00:00 15.3 8 Oeste 17 Oeste 0 -- -- 79
2021-01-20 15:00:00 15.3 8 Oeste 17 Oeste 0 -- -- 79
2021-01-20 14:00:00 14.8 9 Oeste 19 Oeste 0 -- -- 79
2021-01-20 13:00:00 14.2 9 Oeste 18 Noroeste 0 -- -- 79
2021-01-20 12:00:00 14 6 Oeste 13 Oeste 0 -- -- 75
2021-01-20 11:00:00 13 5 Oeste 17 Oeste 0 -- -- 80
2021-01-20 10:00:00 10.7 4 Este 10 Este 0 -- -- 74
2021-01-20 09:00:00 4.5 6 Este 12 Este 0 -- -- 89
2021-01-20 08:00:00 4.1 5 Este 9 Este 0 -- -- 93
2021-01-20 07:00:00 3.7 5 Este 8 Este 0 -- -- 89
2021-01-20 06:00:00 4.8 5 Este 8 Este 0 -- -- 91
2021-01-20 05:00:00 4.4 5 Sudeste 6 Este 0 -- -- 92
2021-01-20 04:00:00 3.7 5 Este 10 Este 0 -- -- 87
2021-01-20 03:00:00 4 4 Este 8 Norte 0 -- -- 76
2021-01-20 02:00:00 5.1 5 Este 9 Oeste 0 -- -- 80
2021-01-20 01:00:00 5.4 5 Este 10 Este 0 -- -- 64
2021-01-20 00:00:00 6.2 5 Sudeste 10 Este 0 -- -- 65
2021-01-19 23:00:00 6.4 4 Sudeste 10 Este 0 -- -- 74
2021-01-19 22:00:00 6.8 8 Este 12 Este 0 -- -- 56
2021-01-19 21:00:00 7.5 4 Este 10 Este 0 -- -- 66
2021-01-19 20:00:00 9.4 4 Este 7 Este 0 -- -- 79
2021-01-19 19:00:00 12.2 3 Este 8 Oeste 0 -- -- 82
2021-01-19 18:00:00 14.6 5 Oeste 12 Oeste 0 -- -- 75
2021-01-19 17:00:00 14.8 8 Oeste 15 Oeste 0 -- -- 74
2021-01-19 16:00:00 14.4 10 Oeste 19 Noroeste 0 -- -- 75
2021-01-19 15:00:00 14.2 9 Oeste 19 Oeste 0 -- -- 74
2021-01-19 14:00:00 14 11 Oeste 19 Oeste 0 -- -- 76
2021-01-19 13:00:00 13.7 10 Oeste 17 Oeste 0 -- -- 78
2021-01-19 12:00:00 13.9 8 Oeste 14 Oeste 0 -- -- 77
2021-01-19 11:00:00 13.1 6 Oeste 11 Oeste 0 -- -- 76
2021-01-19 10:00:00 11.2 3 Sudeste 13 Este 0 -- -- 76
2021-01-19 09:00:00 4.4 8 Este 14 Este 0 -- -- 72
2021-01-19 08:00:00 4.1 10 Este 14 Este 0 -- -- 79
2021-01-19 07:00:00 4.6 4 Este 8 Sudeste 0 -- -- 92
2021-01-19 06:00:00 4.3 5 Este 10 Este 0 -- -- 91
2021-01-19 05:00:00 4.9 5 Este 8 Sudeste 0 -- -- 95
2021-01-19 04:00:00 3.3 3 Sudeste 5 Este 0 -- -- 88
2021-01-19 03:00:00 3.4 5 Este 7 Este 0 -- -- 80
2021-01-19 02:00:00 4 7 Este 10 Este 0 -- -- 74
2021-01-19 01:00:00 4.8 0 Calma 12 Este 0 -- -- 66
2021-01-19 00:00:00 4.9 5 Este 9 Este 0 -- -- 79
2021-01-18 23:00:00 6.2 5 Este 8 Este 0 -- -- 80
2021-01-18 22:00:00 9 3 Sudeste 10 Sudeste 0 -- -- 79
2021-01-18 21:00:00 10.8 3 Sur 8 Sur 0 -- -- 82
2021-01-18 20:00:00 12 0 Calma 6 Sudoeste 0 -- -- 86
2021-01-18 19:00:00 12.7 4 Sudoeste 6 Sudoeste 0 -- -- 83
2021-01-18 18:00:00 14.3 3 Oeste 15 Oeste 0 -- -- 78
2021-01-18 17:00:00 15.1 6 Oeste 14 Oeste 0 -- -- 75
2021-01-18 16:00:00 15.1 8 Oeste 19 Oeste 0 -- -- 74
2021-01-18 15:00:00 15 8 Oeste 18 Oeste 0 -- -- 72
2021-01-18 14:00:00 15.1 10 Oeste 18 Oeste 0 -- -- 72
2021-01-18 13:00:00 14.9 10 Oeste 17 Oeste 0 -- -- 71
2021-01-18 12:00:00 15.1 7 Oeste 15 Oeste 0 -- -- 62
2021-01-18 11:00:00 16 4 Sudeste 10 Sudeste 0 -- -- 37
2021-01-18 10:00:00 11 4 Sudeste 10 Este 0 -- -- 54
2021-01-18 09:00:00 4.9 10 Este 12 Sudeste 0 -- -- 64
2021-01-18 08:00:00 2.9 5 Este 11 Este 0 -- -- 79
2021-01-18 07:00:00 3.9 5 Este 12 Este 0 -- -- 82
2021-01-18 06:00:00 4.6 6 Sudeste 12 Sudeste 0 -- -- 91
2021-01-18 05:00:00 5.2 4 Sudeste 10 Este 0 -- -- 92
2021-01-18 04:00:00 4.5 7 Este 9 Este 0 -- -- 86
2021-01-18 03:00:00 4.4 5 Este 8 Este 0 -- -- 88
2021-01-18 02:00:00 4.5 4 Sudeste 9 Este 0 -- -- 90
2021-01-18 01:00:00 4.5 4 Sudeste 10 Este 0 -- -- 87
2021-01-18 00:00:00 5 5 Este 8 Nordeste 0 -- -- 83
2021-01-17 23:00:00 6.8 5 Este 10 Este 0 -- -- 88
2021-01-17 22:00:00 7.5 4 Este 9 Nordeste 0 -- -- 86
2021-01-17 21:00:00 8.8 3 Este 19 Sudeste 0 -- -- 84
2021-01-17 20:00:00 9.4 5 Este 12 Este 0 -- -- 83
2021-01-17 19:00:00 11.1 9 Este 15 Este 0 -- -- 76
2021-01-17 18:00:00 12.2 10 Este 21 Este 0 -- -- 77
2021-01-17 17:00:00 13.5 9 Sudeste 20 Oeste 0 -- -- 77
2021-01-17 16:00:00 14.2 11 Oeste 23 Oeste 0 -- -- 75
2021-01-17 15:00:00 14.5 6 Este 19 Sudoeste 0 -- -- 71
2021-01-17 14:00:00 14.6 11 Oeste 23 Este 0 -- -- 72
2021-01-17 13:00:00 14.6 12 Este 22 Este 0 -- -- 66
2021-01-17 12:00:00 14.8 8 Sudeste 16 Sudeste 0 -- -- 63
2021-01-17 11:00:00 14 4 Oeste 6 Noroeste 0 -- -- 69
2021-01-17 10:00:00 10.6 2 Nordeste 7 Nordeste 0 -- -- 72
2021-01-17 09:00:00 6.9 3 Este 22 Este 0 -- -- 76
2021-01-17 08:00:00 9.1 10 Este 33 Nordeste 0 -- -- 83
2021-01-17 07:00:00 9.5 15 Este 36 Este 0 -- -- 82
2021-01-17 06:00:00 8 11 Este 27 Este 0 -- -- 87
2021-01-17 05:00:00 7.7 8 Este 31 Este 0 -- -- 80
2021-01-17 04:00:00 9.1 15 Este 32 Este 0 -- -- 84
2021-01-17 03:00:00 9.3 15 Este 30 Este 0 -- -- 82
2021-01-17 02:00:00 9.4 16 Este 44 Este 0 -- -- 80
2021-01-17 01:00:00 9.8 23 Este 48 Este 0 -- -- 83
2021-01-17 00:00:00 10 25 Este 49 Este 0 -- -- 80
2021-01-16 23:00:00 9.8 23 Este 46 Este 0 -- -- 80
2021-01-16 22:00:00 10 23 Este 44 Este 0 -- -- 77
2021-01-16 21:00:00 10 23 Este 54 Este 0 -- -- 73
2021-01-16 20:00:00 10.2 19 Este 49 Este 0 -- -- 77
2021-01-16 19:00:00 10.4 23 Este 46 Sudeste 0 -- -- 84
2021-01-16 18:00:00 11.4 22 Este 44 Este 0 -- -- 83
2021-01-16 17:00:00 12.4 25 Este 39 Este 0 -- -- 75
2021-01-16 16:00:00 12.5 19 Este 42 Este 0 -- -- 76
2021-01-16 15:00:00 12.9 19 Este 42 Sudeste 0 -- -- 81
2021-01-16 14:00:00 13.4 19 Sudeste 42 Este 0 -- -- 75
2021-01-16 13:00:00 13.4 27 Este 52 Sudeste 0 -- -- 71
2021-01-16 12:00:00 12.5 28 Este 53 Este 0 -- -- 72
2021-01-16 11:00:00 11.5 26 Este 57 Este 0 -- -- 72
2021-01-16 10:00:00 10.6 32 Este 60 Este 0 -- -- 74
2021-01-16 09:00:00 9.4 25 Este 52 Este 0 -- -- 80
2021-01-16 08:00:00 9.3 22 Este 57 Este 0 -- -- 80
2021-01-16 07:00:00 9.2 29 Este 50 Este 0 -- -- 84
2021-01-16 06:00:00 9.6 28 Este 55 Este 0 -- -- 80
2021-01-16 05:00:00 9.2 25 Este 49 Este 0 -- -- 79
2021-01-16 04:00:00 9.6 19 Este 42 Este 0 -- -- 79
2021-01-16 03:00:00 9.3 20 Este 55 Este 0 -- -- 79
2021-01-16 02:00:00 9.2 27 Este 54 Nordeste 0 -- -- 80
2021-01-16 01:00:00 9.3 27 Este 57 Este 0 -- -- 79
2021-01-16 00:00:00 9.1 27 Este 55 Este 0 -- -- 78
2021-01-15 23:00:00 9.2 21 Este 46 Nordeste 0 -- -- 77
2021-01-15 22:00:00 9.2 26 Este 54 Este 0 -- -- 78
2021-01-15 21:00:00 9.2 26 Este 67 Este 0 -- -- 79
2021-01-15 20:00:00 9.4 31 Este 55 Este 0 -- -- 76
2021-01-15 19:00:00 9.8 28 Este 50 Sudeste 0 -- -- 75
2021-01-15 18:00:00 10.4 28 Este 54 Este 0 -- -- 77
2021-01-15 17:00:00 11.3 24 Este 46 Este 0 -- -- 72
2021-01-15 16:00:00 11.8 28 Este 49 Este 0 -- -- 71
2021-01-15 15:00:00 11.9 26 Este 54 Este 0 -- -- 69
2021-01-15 14:00:00 11.2 33 Este 57 Este 0 -- -- 74
2021-01-15 13:00:00 11 29 Este 55 Este 0 -- -- 75
2021-01-15 12:00:00 10.2 27 Este 53 Sudeste 0 -- -- 78
2021-01-15 11:00:00 10.1 25 Este 47 Nordeste 0 -- -- 80
2021-01-15 10:00:00 10 23 Este 44 Este 0 -- -- 80
2021-01-15 09:00:00 9.4 18 Nordeste 45 Este 0 -- -- 76
2021-01-15 08:00:00 9.5 20 Este 48 Este 0 -- -- 82
2021-01-15 07:00:00 9.7 16 Este 45 Este 0 -- -- 77
2021-01-15 06:00:00 9.6 18 Este 48 Este 0 -- -- 80
2021-01-15 05:00:00 9.8 18 Este 52 Este 0 -- -- 85
2021-01-15 04:00:00 10 22 Este 56 Nordeste 0.4 -- -- 83
2021-01-15 03:00:00 10.1 27 Este 56 Sudeste 0.2 -- -- 90
2021-01-15 02:00:00 10.9 28 Este 59 Este 0 -- -- 75
2021-01-15 01:00:00 10.3 26 Este 69 Este 0 -- -- 71
2021-01-15 00:00:00 10 38 Este 66 Este 0 -- -- 67
2021-01-14 23:00:00 9.7 28 Este 64 Este 0 -- -- 75
2021-01-14 22:00:00 10.3 17 Este 41 Este 0 -- -- 74
2021-01-14 21:00:00 10.6 9 Nordeste 38 Este 0 -- -- 76
2021-01-14 20:00:00 10.5 18 Este 45 Este 0 -- -- 75
2021-01-14 19:00:00 10.5 19 Este 37 Este 0 -- -- 82
2021-01-14 18:00:00 10.9 18 Este 43 Nordeste 0 -- -- 76
2021-01-14 17:00:00 10.8 15 Este 39 Nordeste 0 -- -- 79
2021-01-14 16:00:00 11.3 17 Este 34 Este 0 -- -- 82
2021-01-14 15:00:00 12.8 19 Este 35 Este 0 -- -- 68
2021-01-14 14:00:00 12.6 16 Este 41 Este 0 -- -- 60
2021-01-14 13:00:00 12.6 23 Este 48 Este 0 -- -- 72
2021-01-14 12:00:00 12.4 23 Este 45 Este 0 -- -- 70
2021-01-14 11:00:00 12.4 20 Este 43 Este 0 -- -- 59
2021-01-14 10:00:00 10.2 26 Este 46 Este 0 -- -- 64
2021-01-14 09:00:00 9.7 19 Este 41 Este 0 -- -- 76
2021-01-14 08:00:00 9.7 18 Este 42 Este 0 -- -- 70
2021-01-14 07:00:00 9.8 19 Este 44 Este 0 -- -- 69
2021-01-14 06:00:00 9.7 15 Este 36 Este 0 -- -- 66
2021-01-14 05:00:00 9.5 18 Este 41 Este 0 -- -- 66
2021-01-14 04:00:00 9.6 20 Este 40 Este 0 -- -- 65
2021-01-14 03:00:00 9.6 17 Este 41 Sudeste 0 -- -- 78
2021-01-14 02:00:00 9.9 15 Este 49 Este 0 -- -- 82
2021-01-14 01:00:00 9.8 27 Este 52 Este 0 -- -- 79
2021-01-14 00:00:00 9.8 28 Este 52 Este 0 -- -- 81
2021-01-13 23:00:00 9.8 25 Este 53 Este 0 -- -- 80
2021-01-13 22:00:00 10.1 20 Este 40 Este 0 -- -- 68
2021-01-13 21:00:00 9.9 14 Nordeste 47 Este 0 -- -- 77
2021-01-13 20:00:00 9.9 22 Este 42 Este 0 -- -- 76
2021-01-13 19:00:00 10 18 Este 42 Sudeste 0 -- -- 80
2021-01-13 18:00:00 10.6 24 Este 43 Este 0 -- -- 77
2021-01-13 17:00:00 11.5 26 Este 46 Este 0 -- -- 74
2021-01-13 16:00:00 11.9 24 Este 39 Este 0 -- -- 73
2021-01-13 15:00:00 12.2 21 Este 40 Este 0 -- -- 76
2021-01-13 14:00:00 12 23 Este 41 Este 0 -- -- 75
2021-01-13 13:00:00 11.8 22 Este 41 Este 0 -- -- 78
2021-01-13 12:00:00 11.7 21 Este 40 Este 0 -- -- 73
2021-01-13 11:00:00 9.7 19 Este 38 Este 0 -- -- 82
2021-01-13 10:00:00 10.3 20 Este 38 Este 0 -- -- 72
2021-01-13 09:00:00 8.7 20 Este 40 Este 0 -- -- 81
2021-01-13 08:00:00 8.8 19 Este 44 Este 0 -- -- 78
2021-01-13 07:00:00 9 23 Este 42 Sudeste 0 -- -- 77
2021-01-13 06:00:00 8.3 20 Sudeste 34 Este 0 -- -- 79
2021-01-13 05:00:00 9.2 18 Este 38 Este 0 -- -- 78
2021-01-13 04:00:00 9.6 14 Sudeste 32 Este 0.2 -- -- 81
2021-01-13 03:00:00 9.9 10 Nordeste 30 Este 0.2 -- -- 80
2021-01-13 02:00:00 9.8 14 Este 33 Este 0 -- -- 84
2021-01-13 01:00:00 10.2 12 Nordeste 36 Este 0 -- -- 76
2021-01-13 00:00:00 10.2 10 Este 38 Sudeste 0.2 -- -- 84
2021-01-12 23:00:00 10.2 15 Este 36 Este 0 -- -- 81
2021-01-12 22:00:00 9.9 17 Este 38 Este 0.2 -- -- 82
2021-01-12 21:00:00 9.4 18 Este 37 Este 0 -- -- 84
2021-01-12 20:00:00 9.1 17 Sudeste 31 Sudeste 0 -- -- 83
2021-01-12 19:00:00 9.4 19 Este 39 Sudeste 0.2 -- -- 84
2021-01-12 18:00:00 10.1 10 Este 35 Este 0.4 -- -- 87
2021-01-12 17:00:00 10.3 17 Sudeste 36 Este 0.4 -- -- 86
2021-01-12 16:00:00 11.1 14 Este 37 Este 0 -- -- 79
2021-01-12 15:00:00 10.9 10 Este 33 Sudeste 0 -- -- 79
2021-01-12 14:00:00 10.7 12 Sudeste 33 Este 0 -- -- 83
2021-01-12 13:00:00 10.9 16 Este 32 Este 0 -- -- 77
2021-01-12 12:00:00 10.2 12 Este 30 Sudeste 0 -- -- 83
2021-01-12 11:00:00 9.2 14 Sudeste 31 Sudeste 0.4 -- -- 87
2021-01-12 10:00:00 9.3 15 Este 28 Este 0 -- -- 83
2021-01-12 09:00:00 8.4 9 Este 25 Este 0.2 -- -- 87
2021-01-12 08:00:00 8.4 15 Este 27 Sudeste 0 -- -- 83
2021-01-12 07:00:00 8.1 15 Este 27 Este 0 -- -- 79
2021-01-12 06:00:00 8 17 Este 36 Este 0 -- -- 75
2021-01-12 05:00:00 8 24 Este 46 Este 0 -- -- 80
2021-01-12 04:00:00 8.2 16 Este 32 Sudeste 0 -- -- 86
2021-01-12 03:00:00 8.2 13 Sudeste 27 Este 2.2 -- -- 91
2021-01-12 02:00:00 8.2 12 Este 28 Este 0.2 -- -- 87
2021-01-12 01:00:00 8.2 20 Este 41 Este 0.4 -- -- 79
2021-01-12 00:00:00 8.3 12 Sudeste 24 Sudeste 0.6 -- -- 89
2021-01-11 23:00:00 8.4 7 Este 17 Este 0.8 -- -- 91
2021-01-11 22:00:00 8.4 6 Este 28 Este 0 -- -- 90
2021-01-11 21:00:00 8.2 6 Este 30 Sudeste 0.8 -- -- 91
2021-01-11 20:00:00 9.1 15 Sudeste 31 Este 0 -- -- 82
2021-01-11 19:00:00 9 17 Este 31 Este 0 -- -- 81
2021-01-11 18:00:00 9.6 22 Este 35 Este 0 -- -- 76
2021-01-11 17:00:00 9.9 19 Este 40 Este 0 -- -- 77
2021-01-11 16:00:00 10.7 21 Este 37 Este 0 -- -- 75
2021-01-11 15:00:00 11.2 12 Sudeste 25 Sudeste 0 -- -- 72
2021-01-11 14:00:00 11.5 9 Sudeste 28 Sudeste 0 -- -- 70
2021-01-11 13:00:00 12.3 11 Sudeste 20 Sudeste 0 -- -- 65
2021-01-11 12:00:00 12.3 6 Oeste 36 Sudeste 0 -- -- 68
2021-01-11 11:00:00 11.7 15 Este 32 Sudeste 0 -- -- 57
2021-01-11 10:00:00 9.2 11 Este 26 Este 0 -- -- 77
2021-01-11 09:00:00 6.3 7 Nordeste 23 Este 0 -- -- 86
2021-01-11 08:00:00 5.5 5 Este 13 Nordeste 0 -- -- 84
2021-01-11 07:00:00 5.9 6 Este 15 Este 0 -- -- 81
2021-01-11 06:00:00 6.5 5 Este 17 Este 0 -- -- 82
2021-01-11 05:00:00 7.6 10 Este 27 Este 0 -- -- 82
2021-01-11 04:00:00 6.7 7 Sudeste 17 Sudeste 0 -- -- 88
2021-01-11 03:00:00 5.9 4 Este 11 Este 0 -- -- 90
2021-01-11 02:00:00 6.5 5 Este 11 Sudeste 0 -- -- 87
2021-01-11 01:00:00 6.4 4 Sudeste 12 Sudeste 0 -- -- 88
2021-01-11 00:00:00 6.6 4 Este 13 Este 0 -- -- 82
2021-01-10 23:00:00 6.5 6 Sudeste 9 Sudeste 0 -- -- 84
2021-01-10 22:00:00 8.2 8 Este 18 Este 0 -- -- 81
2021-01-10 21:00:00 8.4 5 Sudeste 9 Este 0 -- -- 88
2021-01-10 20:00:00 9.7 4 Este 12 Oeste 0 -- -- 83
2021-01-10 19:00:00 10.9 8 Noroeste 20 Noroeste 0 -- -- 86
2021-01-10 18:00:00 12.2 12 Oeste 24 Oeste 0 -- -- 82
2021-01-10 17:00:00 12.8 14 Oeste 28 Oeste 0 -- -- 80
2021-01-10 16:00:00 12.8 13 Oeste 26 Oeste 0 -- -- 83
2021-01-10 15:00:00 12.8 17 Oeste 31 Oeste 0 -- -- 80
2021-01-10 14:00:00 12.2 16 Oeste 28 Oeste 0 -- -- 80
2021-01-10 13:00:00 11.4 9 Oeste 21 Oeste 0 -- -- 81
2021-01-10 12:00:00 11.6 9 Oeste 16 Oeste 0 -- -- 81
2021-01-10 11:00:00 12.8 5 Sudeste 14 Este 0 -- -- 67
2021-01-10 10:00:00 9.9 3 Nordeste 13 Este 0 -- -- 78
2021-01-10 09:00:00 4.7 5 Este 12 Norte 0 -- -- 92
2021-01-10 08:00:00 4.5 5 Este 10 Nordeste 0 -- -- 91
2021-01-10 07:00:00 4.5 3 Este 12 Este 0 -- -- 90
2021-01-10 06:00:00 4.5 6 Este 14 Sudeste 0 -- -- 92
2021-01-10 05:00:00 4.6 0 Calma 14 Este 0 -- -- 89
2021-01-10 04:00:00 5 7 Este 12 Este 0 -- -- 89
2021-01-10 03:00:00 5.7 4 Sudeste 12 Nordeste 0 -- -- 90
2021-01-10 02:00:00 5.6 7 Sudeste 14 Nordeste 0 -- -- 92
2021-01-10 01:00:00 5.7 6 Sudeste 10 Sudeste 0 -- -- 89
2021-01-10 00:00:00 5.4 6 Este 13 Sudeste 0 -- -- 87
2021-01-09 23:00:00 5.5 4 Este 10 Este 0 -- -- 85
2021-01-09 22:00:00 7 3 Este 18 Este 0 -- -- 80
2021-01-09 21:00:00 7.1 6 Este 25 Nordeste 0 -- -- 78
2021-01-09 20:00:00 7.6 5 Sudeste 10 Sudeste 0 -- -- 78
2021-01-09 19:00:00 8.3 2 Sudeste 14 Sur 0 -- -- 74
2021-01-09 18:00:00 9.7 10 Sudeste 24 Sur 0 -- -- 68
2021-01-09 17:00:00 9.9 5 Sur 28 Sudeste 0 -- -- 68
2021-01-09 16:00:00 11 15 Sur 31 Sudeste 0 -- -- 70
2021-01-09 15:00:00 10.5 19 Noroeste 39 Noroeste 0 -- -- 73
2021-01-09 14:00:00 11.1 10 Norte 29 Noroeste 0 -- -- 63
2021-01-09 13:00:00 10.3 12 Noroeste 26 Norte 0 -- -- 77
2021-01-09 12:00:00 9.4 5 Norte 16 Sudoeste 0.4 -- -- 79
2021-01-09 11:00:00 8.9 9 Noroeste 21 Noroeste 0 -- -- 79
2021-01-09 10:00:00 9.3 8 Nordeste 30 Norte 0 -- -- 75
2021-01-09 09:00:00 6.6 4 Sudeste 17 Este 0 -- -- 86
2021-01-09 08:00:00 6.3 7 Este 26 Norte 0 -- -- 83
2021-01-09 07:00:00 6.1 5 Este 17 Este 0 -- -- 85
2021-01-09 06:00:00 5.9 4 Nordeste 18 Este 0 -- -- 83
2021-01-09 05:00:00 5.7 6 Este 14 Este 0 -- -- 90
2021-01-09 04:00:00 6.1 8 Nordeste 20 Nordeste 0 -- -- 87
2021-01-09 03:00:00 5.7 5 Este 15 Este 0.2 -- -- 89
2021-01-09 02:00:00 5.6 5 Sudeste 10 Este 0 -- -- 89
2021-01-09 01:00:00 6.2 4 Este 17 Sur 0 -- -- 86
2021-01-09 00:00:00 6.1 6 Este 12 Este 0 -- -- 84
2021-01-08 23:00:00 6.5 6 Este 13 Este 0 -- -- 86
2021-01-08 22:00:00 7.5 5 Este 12 Este 0 -- -- 90
2021-01-08 21:00:00 8.5 6 Este 14 Este 0.2 -- -- 86
2021-01-08 20:00:00 8.7 3 Este 13 Este 0 -- -- 81
2021-01-08 19:00:00 9.9 5 Nordeste 22 Nordeste 0 -- -- 82
2021-01-08 18:00:00 11.2 12 Sudeste 20 Sur 0 -- -- 78
2021-01-08 17:00:00 11.4 4 Sudeste 23 Sudoeste 0 -- -- 76
2021-01-08 16:00:00 11.1 14 Sur 25 Sur 0 -- -- 83
2021-01-08 15:00:00 12.1 3 Sudeste 18 Norte 0 -- -- 75
2021-01-08 14:00:00 12.2 3 Este 32 Noroeste 0 -- -- 77
2021-01-08 13:00:00 12.5 3 Sudeste 25 Oeste 0 -- -- 76
2021-01-08 12:00:00 12.5 8 Oeste 21 Sudoeste 0 -- -- 90
2021-01-08 11:00:00 12.3 10 Sudoeste 23 Sur 0 -- -- 86
2021-01-08 10:00:00 11.7 6 Este 16 Nordeste 0 -- -- 84
2021-01-08 09:00:00 8.5 5 Este 14 Este 0 -- -- 96
2021-01-08 08:00:00 8.4 4 Este 21 Noroeste 0 -- -- 94
2021-01-08 07:00:00 9 4 Nordeste 36 Oeste 0 -- -- 95
2021-01-08 06:00:00 9.2 14 Oeste 31 Oeste 0 -- -- 100
2021-01-08 05:00:00 9.3 14 Oeste 33 Oeste 0 -- -- 99
2021-01-08 04:00:00 9.6 14 Oeste 30 Sudoeste 0 -- -- 100
2021-01-08 03:00:00 10.1 13 Sudoeste 32 Sudoeste 0.2 -- -- 100
2021-01-08 02:00:00 10.5 15 Sudoeste 39 Sudoeste 0 -- -- 100
2021-01-08 01:00:00 11.3 10 Oeste 27 Oeste 0.4 -- -- 100
2021-01-08 00:00:00 11.7 14 Oeste 45 Oeste 2.2 -- -- 100
2021-01-07 23:00:00 12.5 22 Oeste 45 Oeste 1.2 -- -- 100
2021-01-07 22:00:00 12.9 23 Oeste 48 Oeste 0.2 -- -- 100
2021-01-07 21:00:00 13 27 Oeste 49 Oeste 4.8 -- -- 100
2021-01-07 20:00:00 13.3 29 Oeste 54 Oeste 8.2 -- -- 100
2021-01-07 19:00:00 13.8 26 Oeste 57 Oeste 2.2 -- -- 100
2021-01-07 18:00:00 13.8 33 Oeste 62 Oeste 2.8 -- -- 100
2021-01-07 17:00:00 13.9 33 Oeste 61 Oeste 0 -- -- 100
2021-01-07 16:00:00 13.9 26 Oeste 76 Oeste 0 -- -- 100
2021-01-07 15:00:00 13.6 30 Oeste 54 Oeste 0 -- -- 100
2021-01-07 14:00:00 14.1 35 Oeste 62 Oeste 0.6 -- -- 100
2021-01-07 13:00:00 14.5 37 Oeste 70 Oeste 10.6 -- -- 100
2021-01-07 12:00:00 14.2 47 Oeste 68 Oeste 0.2 -- -- 100
2021-01-07 11:00:00 14.2 33 Oeste 62 Oeste 3.8 -- -- 100
2021-01-07 10:00:00 14.2 33 Oeste 63 Oeste 0.6 -- -- 100
2021-01-07 09:00:00 13.8 26 Oeste 58 Oeste 1.4 -- -- 100
2021-01-07 08:00:00 13.2 23 Oeste 58 Oeste 2.4 -- -- 100
2021-01-07 07:00:00 14.3 30 Oeste 75 Oeste 0 -- -- 100
2021-01-07 06:00:00 14.4 37 Oeste 68 Oeste 2 -- -- 100
2021-01-07 05:00:00 14.5 37 Oeste 61 Oeste 8.8 -- -- 100
2021-01-07 04:00:00 14 26 Oeste 50 Oeste 0.8 -- -- 100
2021-01-07 03:00:00 13.8 22 Oeste 46 Oeste 0.8 -- -- 100
2021-01-07 02:00:00 13.8 24 Oeste 40 Oeste 10 -- -- 100
2021-01-07 01:00:00 13.9 28 Oeste 44 Oeste 4 -- -- 100
2021-01-07 00:00:00 13.9 22 Noroeste 48 Oeste 0.2 -- -- 100
2021-01-06 23:00:00 13.9 26 Oeste 41 Oeste 0 -- -- 100
2021-01-06 22:00:00 14 20 Oeste 40 Oeste 0 -- -- 100
2021-01-06 21:00:00 14 26 Oeste 40 Oeste 2.8 -- -- 100
2021-01-06 20:00:00 14.1 21 Oeste 45 Oeste 1.2 -- -- 100
2021-01-06 19:00:00 14.5 22 Oeste 44 Oeste 4.4 -- -- 100
2021-01-06 18:00:00 14.3 22 Oeste 45 Oeste 0 -- -- 100
2021-01-06 17:00:00 14.2 23 Oeste 47 Oeste 0.4 -- -- 100
2021-01-06 16:00:00 14.4 23 Oeste 50 Oeste 0.6 -- -- 99
2021-01-06 15:00:00 14.8 27 Oeste 50 Oeste 11 -- -- 100
2021-01-06 14:00:00 14.2 26 Oeste 49 Oeste 0.8 -- -- 99
2021-01-06 13:00:00 14.4 25 Oeste 42 Oeste 1.2 -- -- 100
2021-01-06 12:00:00 14.3 22 Noroeste 47 Oeste 0.2 -- -- 100
2021-01-06 11:00:00 14.4 24 Noroeste 48 Oeste 0 -- -- 99
2021-01-06 10:00:00 14.4 23 Oeste 67 Oeste 2.8 -- -- 100
2021-01-06 09:00:00 15 39 Oeste 65 Oeste 0.2 -- -- 100
2021-01-06 08:00:00 15 33 Oeste 59 Oeste 0.2 -- -- 100
2021-01-06 07:00:00 14.9 32 Oeste 56 Oeste 1 -- -- 100
2021-01-06 06:00:00 14.5 28 Oeste 50 Oeste 0.4 -- -- 100
2021-01-06 05:00:00 14 31 Oeste 57 Oeste 0.4 -- -- 99
2021-01-06 04:00:00 14.3 30 Oeste 62 Oeste 0.6 -- -- 100
2021-01-06 03:00:00 13.4 22 Oeste 57 Oeste 6.2 -- -- 99
2021-01-06 02:00:00 13.8 30 Oeste 49 Oeste 1 -- -- 99
2021-01-06 01:00:00 13.9 26 Oeste 47 Oeste 0.8 -- -- 99
2021-01-06 00:00:00 13.9 18 Oeste 34 Noroeste 2.6 -- -- 99
2021-01-05 23:00:00 13.4 14 Oeste 28 Oeste 3.4 -- -- 99
2021-01-05 22:00:00 13.3 8 Oeste 17 Noroeste 1.2 -- -- 99
2021-01-05 21:00:00 13.4 12 Noroeste 27 Oeste 1.6 -- -- 99
2021-01-05 20:00:00 13.5 10 Oeste 21 Oeste 1 -- -- 99
2021-01-05 19:00:00 13.4 9 Noroeste 26 Oeste 2.4 -- -- 98
2021-01-05 18:00:00 13.5 16 Oeste 31 Oeste 2.8 -- -- 98
2021-01-05 17:00:00 14.1 15 Oeste 27 Oeste 0.8 -- -- 98
2021-01-05 16:00:00 14.1 14 Oeste 26 Oeste 2.8 -- -- 98
2021-01-05 15:00:00 13.9 13 Noroeste 24 Oeste 1 -- -- 98
2021-01-05 14:00:00 14.3 13 Oeste 26 Oeste 0 -- -- 98
2021-01-05 13:00:00 14.2 16 Oeste 26 Oeste 0 -- -- 98
2021-01-05 12:00:00 14.1 12 Oeste 16 Sudoeste 0 -- -- 99
2021-01-05 11:00:00 13.4 7 Oeste 15 Oeste 0.2 -- -- 99
2021-01-05 10:00:00 12.3 2 Nordeste 5 Nordeste 0.6 -- -- 99
2021-01-05 09:00:00 11.4 0 Calma 8 Sudeste 0.2 -- -- 99
2021-01-05 08:00:00 11.2 0 Calma 5 Sur 0 -- -- 98
2021-01-05 07:00:00 11.3 4 Este 5 Este 0 -- -- 98
2021-01-05 06:00:00 11.3 0 Calma 6 Nordeste 0 -- -- 99
2021-01-05 05:00:00 11.2 0 Calma 6 Nordeste 0 -- -- 98
2021-01-05 04:00:00 11.1 0 Calma 5 Este 0 -- -- 98
2021-01-05 03:00:00 11.4 3 Este 4 Sudeste 0 -- -- 98
2021-01-05 02:00:00 11.9 0 Calma 8 Sudoeste 0 -- -- 97
2021-01-05 01:00:00 12.5 0 Calma 11 Oeste 0.4 -- -- 98
2021-01-05 00:00:00 12.8 3 Noroeste 23 Oeste 1 -- -- 98
2021-01-04 23:00:00 13.6 13 Oeste 20 Oeste 0.2 -- -- 99
2021-01-04 22:00:00 13.5 12 Oeste 24 Noroeste 0.4 -- -- 99
2021-01-04 21:00:00 14 14 Oeste 25 Oeste 0.2 -- -- 99
2021-01-04 20:00:00 14.2 12 Noroeste 29 Oeste 0.2 -- -- 99
2021-01-04 19:00:00 14.3 21 Oeste 36 Oeste 0.2 -- -- 99
2021-01-04 18:00:00 14 21 Oeste 45 Oeste 7.4 -- -- 99
2021-01-04 17:00:00 13.4 21 Oeste 57 Oeste 4 -- -- 98
2021-01-04 16:00:00 13.9 36 Oeste 59 Oeste 1.4 -- -- 98
2021-01-04 15:00:00 14 22 Oeste 47 Oeste 0 -- -- 98
2021-01-04 14:00:00 13.8 27 Oeste 46 Oeste 0.2 -- -- 98
2021-01-04 13:00:00 13.9 27 Oeste 44 Oeste 0.2 -- -- 97
2021-01-04 12:00:00 14 16 Oeste 36 Oeste 0.4 -- -- 97
2021-01-04 11:00:00 13.9 19 Oeste 36 Oeste 1.2 -- -- 98
2021-01-04 10:00:00 12.9 5 Noroeste 13 Oeste 0 -- -- 97
2021-01-04 09:00:00 12.1 2 Norte 18 Oeste 0 -- -- 97
2021-01-04 08:00:00 11.3 3 Sudeste 8 Sur 0 -- -- 96
2021-01-04 07:00:00 11.3 2 Sudoeste 10 Sudoeste 0 -- -- 95
2021-01-04 06:00:00 11.7 6 Sudeste 15 Noroeste 0 -- -- 95
2021-01-04 05:00:00 12.2 4 Sur 9 Nordeste 0 -- -- 93
2021-01-04 04:00:00 12.6 2 Sudoeste 25 Oeste 0 -- -- 92
2021-01-04 03:00:00 12.5 8 Oeste 30 Oeste 0 -- -- 94
2021-01-04 02:00:00 12.3 4 Norte 14 Noroeste 0 -- -- 95
2021-01-04 01:00:00 12.3 9 Noroeste 24 Noroeste 0 -- -- 96
2021-01-04 00:00:00 12.3 4 Noroeste 28 Oeste 0 -- -- 96
2021-01-03 23:00:00 11.8 5 Este 14 Nordeste 0 -- -- 96
2021-01-03 22:00:00 11.7 2 Sur 6 Sur 0.2 -- -- 95
2021-01-03 21:00:00 12 0 Calma 9 Noroeste 0.2 -- -- 94
2021-01-03 20:00:00 12 5 Sudeste 10 Oeste 0 -- -- 94
2021-01-03 19:00:00 12.6 4 Noroeste 13 Oeste 0 -- -- 89
2021-01-03 18:00:00 13.1 5 Oeste 22 Oeste 0 -- -- 87
2021-01-03 17:00:00 14 13 Oeste 22 Oeste 0 -- -- 83
2021-01-03 16:00:00 14.4 3 Oeste 17 Oeste 0 -- -- 82
2021-01-03 15:00:00 14.3 0 Calma 7 Este 0 -- -- 76
2021-01-03 14:00:00 13 3 Nordeste 15 Oeste 0 -- -- 77
2021-01-03 13:00:00 12.7 9 Sur 26 Este 0.2 -- -- 80
2021-01-03 12:00:00 11.3 2 Este 7 Sudoeste 0 -- -- 90
2021-01-03 11:00:00 10.7 5 Sur 13 Sur 0 -- -- 76
2021-01-03 10:00:00 9.7 6 Nordeste 10 Nordeste 0.4 -- -- 93
2021-01-03 09:00:00 9.8 2 Este 7 Nordeste 0 -- -- 92
2021-01-03 08:00:00 10 2 Nordeste 9 Este 0 -- -- 87
2021-01-03 07:00:00 9.5 5 Este 8 Este 0 -- -- 89
2021-01-03 06:00:00 9.2 5 Este 8 Este 0 -- -- 87
2021-01-03 05:00:00 10.3 5 Este 18 Sudeste 0 -- -- 82
2021-01-03 04:00:00 10 5 Este 17 Este 0 -- -- 85
2021-01-03 03:00:00 10.5 7 Sudeste 20 Este 0 -- -- 83
2021-01-03 02:00:00 10 4 Este 10 Sur 0 -- -- 87
2021-01-03 01:00:00 10.3 5 Sudeste 13 Sudeste 0 -- -- 83
2021-01-03 00:00:00 10.4 7 Sudeste 14 Sudeste 0 -- -- 80
2021-01-02 23:00:00 10.4 6 Sudeste 17 Sudeste 0 -- -- 85
2021-01-02 22:00:00 10.6 8 Sudeste 17 Este 0 -- -- 84
2021-01-02 21:00:00 10.7 7 Sudeste 26 Sudeste 0 -- -- 85
2021-01-02 20:00:00 10.5 9 Este 15 Este 0 -- -- 85
2021-01-02 19:00:00 10.4 10 Sudeste 21 Sudeste 0 -- -- 86
2021-01-02 18:00:00 10.8 10 Sudeste 29 Este 0 -- -- 87
2021-01-02 17:00:00 11.3 13 Sudeste 27 Este 0 -- -- 86
2021-01-02 16:00:00 12.1 6 Sudeste 21 Este 0 -- -- 83
2021-01-02 15:00:00 12.7 10 Este 19 Este 0 -- -- 80
2021-01-02 14:00:00 12.3 12 Este 24 Este 0 -- -- 83
2021-01-02 13:00:00 12.8 11 Este 23 Este 0 -- -- 81